Showing default

COSMOS 2257, 22692

Orbit data source: Space-Track

COSMOS 2257, 22692 is a payload satellite owned by VKS (CIS) in LEO that was launched on Thu, 24 Jun 1993 UTC via a TSIKLON-3 launch vehicle from the Plesetsk Missile And Space Complex (PKMTR). Payload-class satellites include a variety of spacecraft equipped with specific instruments for various scientific and technological missions. These include communications satellites like Starlink; space stations such as the ISS; scientific satellites like the Hubble; Earth observation satellites from companies like Planet Labs, Umbra, and HawkEye 360; GPS; miniature CubeSats for education and research; and military/defense satellites.

Loading next visibility...
Identifier
22692, 1993-038F
Orbit
LEO
Country
Flag of CISCIS
Related business
Manufacturer
NPO PM
Mission
Defense Communications
Bus & Motor
STRELA-3, Unknown motor
Mass
225 kg wet, 225 kg dry
Launch date (UTC)
1993-06-24 (33 years ago)
Launch vehicle
TSIKLON-3
Launch site
Plesetsk Missile And Space Complex (PKMTR)
Object type
Payload
Rocket body
Debris
Shape & HBR
Cyl, 0.8 m
Radar Cross Section
1.257 m², Medium (>0.1 m² and < 1m²)

Expand to show TLE details & history
Last TLE update: 10 hours ago

TLE from 10 hours ago
0 COSMOS 2257
1 22692U 93038F   26036.74711916  .00000040  00000-0  16648-3 0  9999
2 22692  82.5826 322.4971 0007466 296.0110  64.0212 12.62257079503200
Epoch: 2026-02-05T17:55Z
TLE epoch observation values (Epoch: 2026-02-05T17:55:51.095Z)
Latitude
Longitude
-82.36071°
Altitude
1,413.827 km
Speed
7.155 km/s
True Right ascension
21h 29m 59s
True Declination
0° 00' 00"
Sunlit
Object was in daylight at epoch
Visualization orbit readout
Latitude
Unknown
Longitude
Unknown
Altitude
Unknown
Speed
Unknown
Apparent Right ascension
Unknown
Apparent Declination
Unknown
Sunlit
N/A
Visualization observer readout
Local Sidereal Time
05:55:34
Azimuth
Unknown
Elevation
Unknown
Doppler factor
Unknown
Orbital elements
Apogee altitude
1,416.778 km
Perigee altitude
1,405.147 km
Semi-major axis
7,789.1 km
Eccentricity
0.00075
Inclination
82.5826°
RAAN
322.4971°
Arg. of periapsis
296.011°
True anomaly
64.09814°
Mean anomaly
64.0212°
Eccentric anomaly
64.05967°
Mean motion
3.15727 °/min
Orbital period
114.02 mins
BSTAR
0.00016648
Loading maneuver chart data...
Computing Atmospheric mass density...
Loading historical data...
Loading historical data...
Loading historical data...
Loading historical data...
Loading historical data...
Loading historical data...
Loading historical data...

Documentation

Showing up to 5 results
|